This is the latest recevied weather packets stored in our database for station/object S50ME-11. If no packets are shown the sender has not sent any weather packets the latest 10 day(s).
| Time | Temp. | Humidity | Pressure | Rain* | Wind** | Luminosity | Snow |
|---|---|---|---|---|---|---|---|
| 1777927550 | 18.33° C | 37% | 1015.1 hPa | - | - | - | - |
| 1777927547 | 18.33° C | 37% | 1015.1 hPa | - | - | - | - |
| 1777926705 | 18.89° C | 37% | 1015.3 hPa | - | - | - | - |
| 1777926650 | 18.89° C | 37% | 1015.3 hPa | - | - | - | - |
| 1777926647 | 18.89° C | 37% | 1015.3 hPa | - | - | - | - |
| 1777925750 | 19.44° C | 37% | 1015.2 hPa | - | - | - | - |
| 1777925747 | 19.44° C | 37% | 1015.2 hPa | - | - | - | - |
| 1777924850 | 20° C | 37% | 1015.8 hPa | - | - | - | - |
| 1777924846 | 20° C | 37% | 1015.8 hPa | - | - | - | - |
| 1777923946 | 20.56° C | 36% | 1016 hPa | - | - | - | - |
| 1777923050 | 21.11° C | 36% | 1015.8 hPa | - | - | - | - |
| 1777923046 | 21.11° C | 36% | 1015.8 hPa | - | - | - | - |
| 1777922150 | 22.22° C | 35% | 1014.7 hPa | - | - | - | - |
| 1777922145 | 22.22° C | 35% | 1014.7 hPa | - | - | - | - |
| 1777921245 | 22.78° C | 35% | 1016 hPa | - | - | - | - |
| 1777920349 | 23.33° C | 35% | 1015.8 hPa | - | - | - | - |
| 1777920344 | 23.33° C | 35% | 1015.8 hPa | - | - | - | - |
| 1777919444 | 23.33° C | 35% | 1015.7 hPa | - | - | - | - |
| 1777918550 | 24.44° C | 35% | 1015.5 hPa | - | - | - | - |
| 1777918544 | 24.44° C | 35% | 1015.5 hPa | - | - | - | - |
| 1777917657 | 25° C | 35% | 1014.7 hPa | - | - | - | - |
| 1777917653 | 25° C | 35% | 1014.7 hPa | - | - | - | - |
| 1777916756 | 25.56° C | 35% | 1014.8 hPa | - | - | - | - |
| 1777916753 | 25.56° C | 35% | 1014.8 hPa | - | - | - | - |
| 1777915856 | 26.11° C | 34% | 1014.7 hPa | - | - | - | - |
* Rain since midnight (hover to see other rain measurements)
** Current wind speed in m/s (hover to see current wind gust speed)